User: anonymous   Login
Location: Bojarzin Observatory
(39.7980°N, 89.7627°W)
Time: 02:37:19
(UTC-05:00)
Language:

ISS - Orbit

View from above orbital plane
View from above orbital plane
View from above satellite
View from above satellite

Ground track
Ground track

The orbit data is extracted from the following two-line orbital elements,

1 25544U 98067A   16179.23006944  .00003681  00000-0  61569-4 0  9991
2 25544  51.6455   7.9344 0000840  26.2602 322.1219 15.54689507  6540
Epoch (UTC): 27 June 2016 05:31:18
Eccentricity: 0.0000840
inclination: 51.6455°
perigee height: 402 km
apogee height: 403 km
right ascension of ascending node: 7.9344°
argument of perigee: 26.2602°
revolutions per day: 15.54689507
mean anomaly at epoch: 322.1219°
orbit number at epoch: 654

The dashed part of the orbit path shows where the satellite is in the earth's shadow,  

DLR